Weather in Cahul

Moldova     45˚54′13″N   28˚11′55″E
temp.,
°C
wind,
m/s
gust,
m/s
humid.,
%
clouds,
%
prec.,
mm/h
press.,
hPa
HPBL,
m
17 january, sun
sun1723:00−7˚n49600 0.0 1018597
02:00−8˚n48632 0.0 1017575
05:00−9˚nne257268 0.0 1017335
08:00−10˚n237454 0.0 1016165
11:00−7˚nnw35593 0.0 1018651
14:00−5˚n355614 0.0 1016884
17:00−6˚nw227063 0.0 101630
20:00−7˚w227565 0.0 101730
18 january, mon
mon1823:00−6˚w377499 0.0 1018363
02:00−5˚nw598499 0.1 1018567
05:00−6˚nw6984100 0.0 1018556
08:00−6˚nw5790100 0.3 1019661
11:00−7˚nnw71066100 0.1 1021807
14:00−6˚nnw686499 0.1 1020925
17:00−7˚nnw376980 0.0 1021585
20:00−8˚nw387064 0.0 1022552
19 january, tue
tue1923:00−8˚nw277661 0.0 1023402
02:00−9˚nw127730 0.0 1023101
05:00−9˚nnw117739 0.0 102334
08:00−9˚wsw117635 0.0 102421
11:00−6˚wsw34630 0.0 1024410
14:00−3˚sw34562 0.0 1022519
17:00−5˚ssw22665 0.0 102122
20:00−5˚s35703 0.0 102287
20 january, wed
wed2023:00−5˚ssw34811 0.0 102170
02:00−5˚s237924 0.0 102125
05:00−5˚s238397 0.0 102034
08:00−5˚s348698 0.0 102166
11:00−1˚s477467 0.0 1020281
14:00+3˚ssw476559 0.0 1019438
17:00s347980 0.0 102061
20:00−1˚s348769 0.0 102158
21 january, thu
thu2123:00−1˚s34898 0.0 102059
02:00−2˚s33914 0.0 102149
05:00−2˚s34920 0.0 102069
08:00−2˚s34930 0.0 102182
11:00+2˚s35820 0.0 1021236
14:00+4˚s45730 0.0 1020344
17:00+2˚s34840 0.0 101965
20:00s46880 0.0 1020118